Notices

What's New in latest Release from April 7th, 2021:

- Updated Glossary, including Speed of Maximum Gust, and Total Hourly Precipitation

- Updated national and regional climate services offices contacts and prices information

- Addition of station inventory lists for 1981-2010, 1971-2000, and 1961-1990 Normals.

If you haven't already, please take our survey and provide feedback about our website: https://eccc.sondage-survey.ca/f/LanguageSelection.aspx?s=442ca660-fcf1-47c0-95a9-59707d6fd709

Hourly Data Report for October 05, 2015

IQALUIT CLIMATE
NUNAVUT

63°44'50.000" N
68°32'40.000" W
33.50 m
2402592
71321
XFB

Download Data

Hourly Data (October 2015)
Hourly Data Report for October 5, 2015
TIME
LST
Temp Definition
°C
Dew Point Definition
°C
Rel Hum Definition
%
Precip. Amount Definition
mm

Wind Dir Definition
10's deg

Wind Spd Definition
km/h
Visibility Definition
km
Stn Press Definition
kPa
Hmdx Definition


Wind Chill Definition


Weather Definition


00:00 -2.9 -6.6 76 0.0 35 20   101.66   -9 LegendNANA
01:00 -3.7 -7.1 77 0.0 34 27   101.65   -11 LegendNANA
02:00 -3.1 -7.5 72 0.0 35 21   101.66   -9 LegendNANA
03:00 -3.0 -7.5 71 0.0 35 24   101.62   -10 LegendNANA
04:00 -2.9 -7.1 73 0.0 35 24   101.62   -10 LegendNANA
05:00 -2.8 -6.8 73 0.0 33 23   101.61   -9 LegendNANA
06:00 -2.7 -6.3 76 0.0 34 21   101.59   -9 LegendNANA
07:00 -2.7 -6.8 73 0.0 35 22   101.58   -9 LegendNANA
08:00 -2.6 -7.1 71 0.0 35 22   101.59   -9 LegendNANA
09:00 -2.2 -7.1 69 0.0 35 20   101.59   -8 LegendNANA
10:00 -1.9 -6.9 69 0.0 36 19   101.57   -7 LegendNANA
11:00 -1.4 -7.1 65 0.0 35 20   101.56   -7 LegendNANA
12:00 -1.2 -7.2 64 0.0 36 21   101.56   -7 LegendNANA
13:00 -1.3 -7.5 63 0.0 35 21   101.56   -7 LegendNANA
14:00 -1.1 -7.2 63 0.0 34 25   101.56   -7 LegendNANA
15:00 -1.4 -7.6 63 0.0 36 21   101.59   -7 LegendNANA
16:00 -1.7 -7.4 65 0.0 36 19   101.61   -7 LegendNANA
17:00 -2.4 -7.4 68 0.0 36 12   101.64   -7 LegendNANA
18:00 -3.9 -7.5 76 0.0 35 6   101.67   -7 LegendNANA
19:00 -3.2 -6.9 75 0.0 33 8   101.68   -6 LegendNANA
20:00 -3.2 -7.0 75 0.0 1 7   101.70   -6 LegendNANA
21:00 -3.0 -6.9 74 0.0 36 8   101.72   -6 LegendNANA
22:00 -2.8 -8.0 67 0.0 36 11   101.73   -7 LegendNANA
23:00 -2.9 -7.7 69 0.0 35 11   101.70   -7 LegendNANA

Notes on Data Quality.

Legend

  • E = Estimated
  • M = Missing
  • NA = Not Available*
  • [empty] = Indicates an unobserved value
Date modified: